Погода в Гловно

Польша     51°57′43″N   19°42′42″E
темп.,
°C
ветер,
м/с
пор.,
м/с
влажн.,
%
обл.,
%
осадки,
мм/ч
давл.,
гПа
погр.,
м
31 июля, сб
сб3123:00+19з22670 0.0 100814
02:00+18юз116855 0.0 100811
05:00+17ююв2270100 0.0 100712
08:00+21ююв3561100 0.0 1007215
11:00+26юз5752100 0.0 1007967
14:00+24з5758100 0.0 1007589
17:00+23зюз5960100 0.1 1007391
20:00+21зюз49620 0.1 1007170
1 августа, вс
вс123:00+19зюз485497 0.0 1009135
02:00+16з336411 0.0 101044
05:00+16зюз346680 0.0 101069
08:00+19з346048 0.0 1010316
11:00+23юз1248100 0.0 10091082
14:00+16зсз5793100 4.2 1010334
17:00+15с4693100 3.7 1009383
20:00+15ссв239297 4.2 1008199
2 августа, пн
пн223:00+14ссз229398 0.0 100872
02:00+14зсз3591100 0.0 1008156
05:00+14з3692100 0.0 1008201
08:00+15з3589100 0.5 1008240
11:00+19з4668100 1.4 1009562
14:00+21з5762100 2.2 10101191
17:00+22з585898 0.6 10101619
20:00+17зсз367976 1.4 1011152
3 августа, вт
вт323:00+15з488857 0.4 1012177
02:00+13з368633 0.4 1014102
05:00+12з368576 0.0 1015118
08:00+15зюз378350 0.0 1015312
11:00+20з46520 0.0 10161566
14:00+22з46425 0.0 10152070
17:00+23з35425 0.0 10142040
20:00+19юз115836 0.0 101411
4 августа, ср
ср423:00+17юв336071 0.0 101537
02:00+17юв485597 0.0 1014184
05:00+15юв48676 0.0 1013132
08:00+19вюв586793 0.0 1013312
11:00+23вюв565199 0.0 10121083
14:00+23вюв5659100 1.4 10101230
17:00+19юз3480100 8.9 101074
20:00+17зсз3693100 10.1 1010262